Chicago DuPage, IL

6:24 AM CDT on May 23, 2018 (GMT -0500)
Du Page

Weather History for KDPA - August, 2014

Change the Weather History Date:

Friday, August 8, 2014

  Actual Average Record
Temperature  
Mean Temperature 73 °F 73 °F  
Max Temperature 83 °F 83 °F 92 °F (2001)
Min Temperature 62 °F 62 °F 52 °F (1997)
Degree Days  
Heating Degree Days 0 0  
Month to date heating degree days 0 0  
Since 1 June heating degree days 27 38  
Since 1 July heating degree days 9 2  
Cooling Degree Days 8 8  
Month to date cooling degree days 59 64  
Year to date cooling degree days 489 566  
Since 1 June cooling degree days 420 520  
Growing Degree Days 22 (Base 50)    
Moisture  
Dew Point 59 °F    
Average Humidity 64    
Maximum Humidity 90    
Minimum Humidity 41    
Precipitation  
Precipitation 0.00 in 0.14 in 1.07 in (2011)
Month to date precipitation 0.66 1.32  
Year to date precipitation 17.42 22.35  
Sea Level Pressure  
Sea Level Pressure 30.05 in    
Wind  
Wind Speed 10 mph (ENE)    
Max Wind Speed 18 mph    
Max Gust Speed 23 mph    
Visibility 10 miles    
Events      
T = Trace of Precipitation, MM = Missing Value Source: NWS Daily Summary

Daily Weather History Graph

Daily Weather History Graph

Search for Another Location

Airport or City:

Astronomy

Aug. 08, 2014 Rise Set
Actual Time 5:53 AM CDT 8:02 PM CDT
Civil Twilight 5:23 AM CDT 8:33 PM CDT
Nautical Twilight 4:45 AM CDT 9:11 PM CDT
Astronomical Twilight 4:03 AM CDT 9:52 PM CDT
Moon 6:14 PM CDT (8/8) 3:25 AM CDT (8/8)
Length of Visible Light 15h 10m
Length of Day
14h 08m
Waxing Gibbous, 94% of the Moon is Illuminated
Aug 8
Waxing Gibbous
Aug 10
Full
Aug 17
Last Quarter
Aug 25
New
Sep 2
First Quarter

Hourly Weather History & Observations

Time (CDT) Temp. Heat Index Dew Point Humidity Pressure Visibility Wind Dir Wind Speed Gust Speed Precip Events Conditions
12:52 AM 66.0 °F - 62.1 °F 87% 30.04 in 9.0 mi ENE 6.9 mph - N/A   Clear
1:52 AM 64.9 °F - 61.0 °F 87% 30.04 in 10.0 mi ENE 5.8 mph - N/A   Clear
2:52 AM 63.0 °F - 60.1 °F 90% 30.04 in 9.0 mi NE 4.6 mph - N/A   Clear
3:52 AM 63.0 °F - 60.1 °F 90% 30.04 in 10.0 mi NE 5.8 mph - N/A   Partly Cloudy
4:52 AM 64.0 °F - 61.0 °F 90% 30.04 in 10.0 mi NE 4.6 mph - N/A   Overcast
5:52 AM 66.0 °F - 62.1 °F 87% 30.06 in 10.0 mi East 5.8 mph - N/A   Overcast
6:52 AM 68.0 °F - 62.1 °F 81% 30.07 in 9.0 mi ENE 8.1 mph - N/A   Mostly Cloudy
7:52 AM 70.0 °F - 61.0 °F 73% 30.06 in 10.0 mi East 9.2 mph - N/A   Clear
8:52 AM 75.0 °F - 59.0 °F 57% 30.06 in 10.0 mi East 11.5 mph - N/A   Clear
9:52 AM 75.9 °F - 57.9 °F 54% 30.06 in 9.0 mi East 13.8 mph - N/A   Clear
10:52 AM 78.1 °F - 55.9 °F 46% 30.06 in 10.0 mi ESE 10.4 mph - N/A   Scattered Clouds
11:52 AM 81.0 °F 81.0 °F 57.0 °F 44% 30.06 in 10.0 mi East 16.1 mph - N/A   Scattered Clouds
12:52 PM 81.0 °F 81.0 °F 57.0 °F 44% 30.05 in 10.0 mi ENE 11.5 mph - N/A   Scattered Clouds
1:52 PM 82.0 °F 81.7 °F 57.0 °F 42% 30.04 in 10.0 mi East 15.0 mph 20.7 mph N/A   Clear
2:52 PM 81.0 °F 81.1 °F 57.9 °F 45% 30.03 in 10.0 mi ESE 8.1 mph - N/A   Mostly Cloudy
3:52 PM 82.9 °F 82.4 °F 57.0 °F 41% 30.03 in 10.0 mi East 11.5 mph 19.6 mph N/A   Overcast
4:52 PM 81.0 °F 80.8 °F 55.9 °F 42% 30.02 in 10.0 mi East 11.5 mph - N/A   Clear
5:52 PM 79.0 °F - 57.0 °F 47% 30.03 in 10.0 mi ENE 12.7 mph - N/A   Clear
6:52 PM 77.0 °F - 55.0 °F 47% 30.03 in 10.0 mi ENE 13.8 mph - N/A   Clear
7:52 PM 73.9 °F - 57.0 °F 55% 30.04 in 10.0 mi NE 9.2 mph - N/A   Clear
8:52 PM 72.0 °F - 57.0 °F 59% 30.04 in 10.0 mi NE 8.1 mph - N/A   Clear
9:52 PM 70.0 °F - 57.9 °F 65% 30.04 in 10.0 mi NE 10.4 mph - N/A   Clear
10:52 PM 68.0 °F - 60.1 °F 76% 30.06 in 10.0 mi NE 6.9 mph - N/A   Clear
11:52 PM 66.9 °F - 61.0 °F 81% 30.05 in 9.0 mi NE 8.1 mph - N/A   Clear